Location: Burland Observatory
(39.4088°N, 105.4217°W)
Time: 03:47:04
(UTC-07:00)

S-56A Canister/Altair - Pass Details

Date: 16 December 2019
Orbit: 634 x 2498 km, 38.9° (Epoch: 28 January)

Event Time Altitude Azimuth Distance (km) Brightness Sun altitude
Rises 05:24:58 0° 183° (S) 4,546 11.6 -20.5°
Reaches altitude 10° 05:29:01 10° 165° (SSE) 3,901 11.5 -19.8°
Maximum altitude 05:35:34 18° 126° (SE) 3,726 11.9 -18.5°
Drops below altitude 10° 05:43:24 10° 89° (E) 4,816 12.7 -17.1°
Sets 05:49:14 0° 75° (ENE) 6,044 13.1 -16.0°
